Year,Month,Day,Hour,Minute,Value (Times are PST for temperature in C)
2012,06,27,00,00,12.10
2012,06,27,00,01,12.10
2012,06,27,00,02,12.10
2012,06,27,00,03,12.10
2012,06,27,00,04,12.20
2012,06,27,00,05,12.20
2012,06,27,00,06,12.20
2012,06,27,00,07,12.20
2012,06,27,00,08,12.20
2012,06,27,00,09,12.20
2012,06,27,00,10,12.20
2012,06,27,00,11,12.20
2012,06,27,00,12,12.20
2012,06,27,00,13,12.20
2012,06,27,00,14,12.10
2012,06,27,00,15,12.10
2012,06,27,00,16,12.10
2012,06,27,00,17,12.10
2012,06,27,00,18,12.10
2012,06,27,00,19,12.10
2012,06,27,00,20,12.10
2012,06,27,00,21,12.10
2012,06,27,00,22,12.10
2012,06,27,00,23,12.10
2012,06,27,00,24,12.10
2012,06,27,00,25,12.10
2012,06,27,00,26,12.10
2012,06,27,00,27,12.10
2012,06,27,00,28,12.10
2012,06,27,00,29,12.10
2012,06,27,00,30,12.10
2012,06,27,00,31,12.10
2012,06,27,00,32,12.10
2012,06,27,00,33,12.10
2012,06,27,00,34,12.10
2012,06,27,00,35,12.10
2012,06,27,00,36,12.10
2012,06,27,00,37,12.10
2012,06,27,00,38,12.10
2012,06,27,00,39,12.10
2012,06,27,00,40,12.10
2012,06,27,00,41,12.10
2012,06,27,00,42,12.10
2012,06,27,00,43,12.10
2012,06,27,00,44,12.10
2012,06,27,00,45,12.00
2012,06,27,00,46,12.00
2012,06,27,00,47,12.00
2012,06,27,00,48,12.00
2012,06,27,00,49,12.00
2012,06,27,00,50,12.00
2012,06,27,00,51,11.90
2012,06,27,00,52,11.90
2012,06,27,00,53,11.90
2012,06,27,00,54,11.90
2012,06,27,00,55,11.90
2012,06,27,00,56,11.90
2012,06,27,00,57,11.90
2012,06,27,00,58,11.90
2012,06,27,00,59,11.90
2012,06,27,01,00,11.80
2012,06,27,01,01,11.80
2012,06,27,01,02,11.80
2012,06,27,01,03,11.80
2012,06,27,01,04,11.80
2012,06,27,01,05,11.80
2012,06,27,01,06,11.80
2012,06,27,01,07,11.80
2012,06,27,01,08,11.80
2012,06,27,01,09,11.70
2012,06,27,01,10,11.70
2012,06,27,01,11,11.60
2012,06,27,01,12,11.60
2012,06,27,01,13,11.50
2012,06,27,01,14,11.50
2012,06,27,01,15,11.50
2012,06,27,01,16,11.50
2012,06,27,01,17,11.50
2012,06,27,01,18,11.40
2012,06,27,01,19,11.40
2012,06,27,01,20,11.40
2012,06,27,01,21,11.30
2012,06,27,01,22,11.30
2012,06,27,01,23,11.30
2012,06,27,01,24,11.30
2012,06,27,01,25,11.30
2012,06,27,01,26,11.30
2012,06,27,01,27,11.30
2012,06,27,01,28,11.30
2012,06,27,01,29,11.30
2012,06,27,01,30,11.30
2012,06,27,01,31,11.20
2012,06,27,01,32,11.20
2012,06,27,01,33,11.20
2012,06,27,01,34,11.20
2012,06,27,01,35,11.20
2012,06,27,01,36,11.20
2012,06,27,01,37,11.20
2012,06,27,01,38,11.20
2012,06,27,01,39,11.20
2012,06,27,01,40,11.20
2012,06,27,01,41,11.20
2012,06,27,01,42,11.20
2012,06,27,01,43,11.20
2012,06,27,01,44,11.20
2012,06,27,01,45,11.20
2012,06,27,01,46,11.20
2012,06,27,01,47,11.20
2012,06,27,01,48,11.20
2012,06,27,01,49,11.20
2012,06,27,01,50,11.20
2012,06,27,01,51,11.20
2012,06,27,01,52,11.10
2012,06,27,01,53,11.10
2012,06,27,01,54,11.10
2012,06,27,01,55,11.10
2012,06,27,01,56,11.10
2012,06,27,01,57,11.00
2012,06,27,01,58,11.00
2012,06,27,01,59,11.00
2012,06,27,02,00,10.90
2012,06,27,02,01,10.90
2012,06,27,02,02,10.90
2012,06,27,02,03,10.90
2012,06,27,02,04,10.90
2012,06,27,02,05,10.90
2012,06,27,02,06,10.80
2012,06,27,02,07,10.80
2012,06,27,02,08,10.80
2012,06,27,02,09,10.80
2012,06,27,02,10,10.80
2012,06,27,02,11,10.80
2012,06,27,02,12,10.70
2012,06,27,02,13,10.70
2012,06,27,02,14,10.70
2012,06,27,02,15,10.70
2012,06,27,02,16,10.70
2012,06,27,02,17,10.60
2012,06,27,02,18,10.60
2012,06,27,02,19,10.60
2012,06,27,02,20,10.60
2012,06,27,02,21,10.50
2012,06,27,02,22,10.50
2012,06,27,02,23,10.50
2012,06,27,02,24,10.40
2012,06,27,02,25,10.40
2012,06,27,02,26,10.40
2012,06,27,02,27,10.40
2012,06,27,02,28,10.40
2012,06,27,02,29,10.40
2012,06,27,02,30,10.30
2012,06,27,02,31,10.30
2012,06,27,02,32,10.30
2012,06,27,02,33,10.30
2012,06,27,02,34,10.30
2012,06,27,02,35,10.30
2012,06,27,02,36,10.30
2012,06,27,02,37,10.20
2012,06,27,02,38,10.20
2012,06,27,02,39,10.20
2012,06,27,02,40,10.20
2012,06,27,02,41,10.20
2012,06,27,02,42,10.20
2012,06,27,02,43,10.10
2012,06,27,02,44,10.10
2012,06,27,02,45,10.10
2012,06,27,02,46,10.10
2012,06,27,02,47,10.10
2012,06,27,02,48,10.10
2012,06,27,02,49,10.10
2012,06,27,02,50,10.10
2012,06,27,02,51,10.10
2012,06,27,02,52,10.10
2012,06,27,02,53,10.10
2012,06,27,02,54,10.10
2012,06,27,02,55,10.00
2012,06,27,02,56,10.00
2012,06,27,02,57,10.00
2012,06,27,02,58,10.00
2012,06,27,02,59,9.90
2012,06,27,03,00,9.90
2012,06,27,03,01,9.90
2012,06,27,03,02,9.90
2012,06,27,03,03,9.90
2012,06,27,03,06,10.10
2012,06,27,03,07,10.10
2012,06,27,03,08,10.10
2012,06,27,03,09,10.10
2012,06,27,03,10,10.10
2012,06,27,03,11,10.10
2012,06,27,03,12,10.10
2012,06,27,03,13,10.10
2012,06,27,03,14,10.00
2012,06,27,03,15,10.00
2012,06,27,03,16,9.90
2012,06,27,03,17,9.80
2012,06,27,03,18,9.80
2012,06,27,03,19,9.70
2012,06,27,03,20,9.70
2012,06,27,03,21,9.70
2012,06,27,03,22,9.60
2012,06,27,03,23,9.60
2012,06,27,03,24,9.60
2012,06,27,03,25,9.60
2012,06,27,03,26,9.60
2012,06,27,03,27,9.50
2012,06,27,03,28,9.50
2012,06,27,03,29,9.50
2012,06,27,03,30,9.50
2012,06,27,03,31,9.50
2012,06,27,03,32,9.40
2012,06,27,03,33,9.40
2012,06,27,03,34,9.40
2012,06,27,03,35,9.40
2012,06,27,03,36,9.40
2012,06,27,03,37,9.40
2012,06,27,03,38,9.40
2012,06,27,03,39,9.40
2012,06,27,03,40,9.40
2012,06,27,03,41,9.40
2012,06,27,03,42,9.40
2012,06,27,03,43,9.40
2012,06,27,03,44,9.30
2012,06,27,03,45,9.30
2012,06,27,03,46,9.30
2012,06,27,03,47,9.30
2012,06,27,03,48,9.30
2012,06,27,03,49,9.30
2012,06,27,03,50,9.30
2012,06,27,03,51,9.30
2012,06,27,03,52,9.30
2012,06,27,03,53,9.30
2012,06,27,03,54,9.30
2012,06,27,03,55,9.30
2012,06,27,03,56,9.20
2012,06,27,03,57,9.20
2012,06,27,03,58,9.20
2012,06,27,03,59,9.20
2012,06,27,04,00,9.10
2012,06,27,04,01,9.10
2012,06,27,04,02,9.00
2012,06,27,04,03,9.00
2012,06,27,04,04,8.90
2012,06,27,04,05,8.90
2012,06,27,04,06,8.90
2012,06,27,04,07,8.90
2012,06,27,04,08,8.90
2012,06,27,04,09,8.80
2012,06,27,04,10,8.80
2012,06,27,04,11,8.80
2012,06,27,04,12,8.80
2012,06,27,04,13,8.70
2012,06,27,04,14,8.70
2012,06,27,04,15,8.70
2012,06,27,04,16,8.70
2012,06,27,04,17,8.70
2012,06,27,04,18,8.80
2012,06,27,04,19,8.80
2012,06,27,04,20,8.80
2012,06,27,04,21,8.80
2012,06,27,04,22,8.80
2012,06,27,04,23,8.70
2012,06,27,04,24,8.70
2012,06,27,04,25,8.70
2012,06,27,04,26,8.70
2012,06,27,04,27,8.70
2012,06,27,04,28,8.70
2012,06,27,04,29,8.60
2012,06,27,04,30,8.60
2012,06,27,04,31,8.60
2012,06,27,04,32,8.60
2012,06,27,04,33,8.60
2012,06,27,04,34,8.60
2012,06,27,04,35,8.60
2012,06,27,04,36,8.60
2012,06,27,04,37,8.60
2012,06,27,04,38,8.60
2012,06,27,04,39,8.60
2012,06,27,04,40,8.60
2012,06,27,04,41,8.60
2012,06,27,04,42,8.60
2012,06,27,04,43,8.60
2012,06,27,04,44,8.60
2012,06,27,04,45,8.60
2012,06,27,04,46,8.60
2012,06,27,04,47,8.60
2012,06,27,04,48,8.60
2012,06,27,04,49,8.60
2012,06,27,04,50,8.60
2012,06,27,04,51,8.60
2012,06,27,04,52,8.60
2012,06,27,04,53,8.60
2012,06,27,04,54,8.60
2012,06,27,04,55,8.60
2012,06,27,04,56,8.60
2012,06,27,04,57,8.60
2012,06,27,04,58,8.60
2012,06,27,04,59,8.60
2012,06,27,05,00,8.60
2012,06,27,05,01,8.60
2012,06,27,05,02,8.60
2012,06,27,05,03,8.60
2012,06,27,05,04,8.60
2012,06,27,05,05,8.60
2012,06,27,05,06,8.70
2012,06,27,05,07,8.70
2012,06,27,05,08,8.70
2012,06,27,05,09,8.70
2012,06,27,05,10,8.70
2012,06,27,05,11,8.70
2012,06,27,05,12,8.80
2012,06,27,05,13,8.80
2012,06,27,05,14,8.80
2012,06,27,05,15,8.80
2012,06,27,05,16,8.80
2012,06,27,05,17,8.80
2012,06,27,05,18,8.80
2012,06,27,05,19,8.80
2012,06,27,05,20,8.80
2012,06,27,05,21,8.80
2012,06,27,05,22,8.80
2012,06,27,05,23,8.80
2012,06,27,05,24,8.80
2012,06,27,05,25,8.70
2012,06,27,05,26,8.70
2012,06,27,05,27,8.70
2012,06,27,05,28,8.70
2012,06,27,05,29,8.70
2012,06,27,05,30,8.70
2012,06,27,05,31,8.70
2012,06,27,05,32,8.70
2012,06,27,05,33,8.70
2012,06,27,05,34,8.70
2012,06,27,05,35,8.70
2012,06,27,05,36,8.70
2012,06,27,05,37,8.70
2012,06,27,05,38,8.70
2012,06,27,05,39,8.70
2012,06,27,05,40,8.70
2012,06,27,05,41,8.70
2012,06,27,05,42,8.70
2012,06,27,05,43,8.70
2012,06,27,05,44,8.70
2012,06,27,05,45,8.70
2012,06,27,05,46,8.70
2012,06,27,05,47,8.70
2012,06,27,05,48,8.70
2012,06,27,05,49,8.70
2012,06,27,05,50,8.70
2012,06,27,05,51,8.70
2012,06,27,05,52,8.70
2012,06,27,05,53,8.70
2012,06,27,05,54,8.70
2012,06,27,05,55,8.70
2012,06,27,05,56,8.70
2012,06,27,05,57,8.70
2012,06,27,05,58,8.70
2012,06,27,05,59,8.70
2012,06,27,06,00,8.70
2012,06,27,06,01,8.70
2012,06,27,06,02,8.70
2012,06,27,06,03,8.70
2012,06,27,06,04,8.70
2012,06,27,06,05,8.70
2012,06,27,06,06,8.70
2012,06,27,06,07,8.70
2012,06,27,06,08,8.70
2012,06,27,06,09,8.70
2012,06,27,06,10,8.80
2012,06,27,06,11,8.80
2012,06,27,06,12,8.80
2012,06,27,06,13,8.80
2012,06,27,06,14,8.80
2012,06,27,06,15,8.80
2012,06,27,06,16,8.80
2012,06,27,06,17,8.80
2012,06,27,06,18,8.80
2012,06,27,06,19,8.80
2012,06,27,06,20,8.80
2012,06,27,06,21,8.80
2012,06,27,06,22,8.80
2012,06,27,06,23,8.80
2012,06,27,06,24,8.80
2012,06,27,06,25,8.80
2012,06,27,06,26,8.80
2012,06,27,06,27,8.80
2012,06,27,06,28,8.90
2012,06,27,06,29,8.90
2012,06,27,06,30,8.90
2012,06,27,06,31,8.90
2012,06,27,06,32,9.00
2012,06,27,06,33,9.00
2012,06,27,06,34,9.00
2012,06,27,06,35,9.10
2012,06,27,06,36,9.20
2012,06,27,06,37,9.30
2012,06,27,06,38,9.30
2012,06,27,06,39,9.40
2012,06,27,06,40,9.40
2012,06,27,06,41,9.40
2012,06,27,06,42,9.40
2012,06,27,06,43,9.50
2012,06,27,06,44,9.50
2012,06,27,06,45,9.50
2012,06,27,06,46,9.50
2012,06,27,06,47,9.50
2012,06,27,06,48,9.50
2012,06,27,06,49,9.50
2012,06,27,06,50,9.50
2012,06,27,06,51,9.40
2012,06,27,06,52,9.40
2012,06,27,06,53,9.50
2012,06,27,06,54,9.50
2012,06,27,06,55,9.50
2012,06,27,06,56,9.50
2012,06,27,06,57,9.50
2012,06,27,06,58,9.50
2012,06,27,06,59,9.60
2012,06,27,07,00,9.60
2012,06,27,07,01,9.70
2012,06,27,07,02,9.70
2012,06,27,07,03,9.80
2012,06,27,07,04,9.80
2012,06,27,07,05,9.90
2012,06,27,07,06,10.00
2012,06,27,07,07,10.00
2012,06,27,07,08,10.00
2012,06,27,07,09,10.10
2012,06,27,07,10,10.10
2012,06,27,07,11,10.10
2012,06,27,07,12,10.10
2012,06,27,07,13,10.10
2012,06,27,07,14,10.10
2012,06,27,07,15,10.10
2012,06,27,07,16,10.10
2012,06,27,07,17,10.10
2012,06,27,07,18,10.10
2012,06,27,07,19,10.20
2012,06,27,07,20,10.20
2012,06,27,07,21,10.20
2012,06,27,07,22,10.20
2012,06,27,07,23,10.20
2012,06,27,07,24,10.30
2012,06,27,07,25,10.30
2012,06,27,07,26,10.40
2012,06,27,07,27,10.40
2012,06,27,07,28,10.50
2012,06,27,07,29,10.60
2012,06,27,07,30,10.70
2012,06,27,07,31,10.70
2012,06,27,07,32,10.80
2012,06,27,07,33,10.90
2012,06,27,07,34,11.00
2012,06,27,07,35,11.10
2012,06,27,07,36,11.20
2012,06,27,07,37,11.30
2012,06,27,07,38,11.30
2012,06,27,07,39,11.30
2012,06,27,07,40,11.30
2012,06,27,07,41,11.30
2012,06,27,07,42,11.20
2012,06,27,07,43,11.20
2012,06,27,07,44,11.20
2012,06,27,07,45,11.10
2012,06,27,07,46,11.10
2012,06,27,07,47,11.10
2012,06,27,07,48,11.10
2012,06,27,07,49,11.10
2012,06,27,07,50,11.10
2012,06,27,07,51,11.10
2012,06,27,07,52,11.10
2012,06,27,07,53,11.20
2012,06,27,07,54,11.20
2012,06,27,07,55,11.20
2012,06,27,07,56,11.20
2012,06,27,07,57,11.30
2012,06,27,07,58,11.30
2012,06,27,07,59,11.30
2012,06,27,08,00,11.30
2012,06,27,08,01,11.30
2012,06,27,08,02,11.30
2012,06,27,08,03,11.40
2012,06,27,08,04,11.50
2012,06,27,08,05,11.60
2012,06,27,08,06,11.60
2012,06,27,08,07,11.70
2012,06,27,08,08,11.70
2012,06,27,08,09,11.80
2012,06,27,08,10,11.80
2012,06,27,08,11,11.80
2012,06,27,08,12,11.80
2012,06,27,08,13,11.80
2012,06,27,08,14,11.80
2012,06,27,08,15,11.80
2012,06,27,08,16,11.90
2012,06,27,08,17,11.90
2012,06,27,08,18,12.00
2012,06,27,08,19,12.00
2012,06,27,08,20,12.10
2012,06,27,08,21,12.20
2012,06,27,08,22,12.20
2012,06,27,08,23,12.20
2012,06,27,08,24,12.30
2012,06,27,08,25,12.20
2012,06,27,08,26,12.30
2012,06,27,08,27,12.30
2012,06,27,08,28,12.30
2012,06,27,08,29,12.30
2012,06,27,08,30,12.30
2012,06,27,08,31,12.40
2012,06,27,08,32,12.50
2012,06,27,08,33,12.60
2012,06,27,08,34,12.70
2012,06,27,08,35,12.80
2012,06,27,08,36,12.90
2012,06,27,08,37,13.00
2012,06,27,08,38,13.10
2012,06,27,08,39,13.10
2012,06,27,08,40,13.10
2012,06,27,08,41,13.10
2012,06,27,08,42,13.10
2012,06,27,08,43,13.10
2012,06,27,08,44,13.10
2012,06,27,08,45,13.20
2012,06,27,08,46,13.20
2012,06,27,08,47,13.30
2012,06,27,08,48,13.40
2012,06,27,08,49,13.50
2012,06,27,08,50,13.50
2012,06,27,08,51,13.50
2012,06,27,08,52,13.40
2012,06,27,08,53,13.30
2012,06,27,08,54,13.20
2012,06,27,08,55,13.20
2012,06,27,08,56,13.20
2012,06,27,08,57,13.20
2012,06,27,08,58,13.10
2012,06,27,08,59,13.10
2012,06,27,09,00,13.10
2012,06,27,09,01,13.10
2012,06,27,09,02,13.00
2012,06,27,09,03,12.90
2012,06,27,09,04,12.90
2012,06,27,09,05,13.00
2012,06,27,09,06,13.00
2012,06,27,09,07,13.00
2012,06,27,09,08,13.00
2012,06,27,09,09,13.00
2012,06,27,09,10,13.10
2012,06,27,09,11,13.10
2012,06,27,09,12,13.20
2012,06,27,09,13,13.30
2012,06,27,09,14,13.30
2012,06,27,09,15,13.40
2012,06,27,09,16,13.40
2012,06,27,09,17,13.40
2012,06,27,09,18,13.40
2012,06,27,09,19,13.40
2012,06,27,09,20,13.50
2012,06,27,09,21,13.40
2012,06,27,09,22,13.40
2012,06,27,09,23,13.40
2012,06,27,09,24,13.40
2012,06,27,09,25,13.50
2012,06,27,09,26,13.50
2012,06,27,09,27,13.60
2012,06,27,09,28,13.80
2012,06,27,09,29,13.90
2012,06,27,09,30,14.10
2012,06,27,09,31,14.30
2012,06,27,09,32,14.40
2012,06,27,09,33,14.50
2012,06,27,09,34,14.50
2012,06,27,09,35,14.50
2012,06,27,09,36,14.50
2012,06,27,09,37,14.50
2012,06,27,09,38,14.50
2012,06,27,09,39,14.40
2012,06,27,09,40,14.50
2012,06,27,09,41,14.50
2012,06,27,09,42,14.60
2012,06,27,09,43,14.70
2012,06,27,09,44,14.80
2012,06,27,09,45,14.80
2012,06,27,09,46,14.80
2012,06,27,09,47,14.80
2012,06,27,09,48,14.90
2012,06,27,09,49,14.90
2012,06,27,09,50,14.90
2012,06,27,09,51,14.90
2012,06,27,09,52,14.90
2012,06,27,09,53,15.00
2012,06,27,09,54,15.10
2012,06,27,09,55,15.10
2012,06,27,09,56,15.20
2012,06,27,09,57,15.30
2012,06,27,09,58,15.40
2012,06,27,09,59,15.50
2012,06,27,10,00,15.50
2012,06,27,10,01,15.40
2012,06,27,10,02,15.30
2012,06,27,10,03,15.20
2012,06,27,10,04,15.20
2012,06,27,10,05,15.20
2012,06,27,10,06,15.20
2012,06,27,10,07,15.20
2012,06,27,10,08,15.20
2012,06,27,10,09,15.30
2012,06,27,10,10,15.30
2012,06,27,10,11,15.40
2012,06,27,10,12,15.40
2012,06,27,10,13,15.50
2012,06,27,10,14,15.60
2012,06,27,10,15,15.60
2012,06,27,10,16,15.50
2012,06,27,10,17,15.50
2012,06,27,10,18,15.50
2012,06,27,10,19,15.50
2012,06,27,10,20,15.60
2012,06,27,10,21,15.60
2012,06,27,10,22,15.80
2012,06,27,10,23,15.90
2012,06,27,10,24,15.90
2012,06,27,10,25,15.90
2012,06,27,10,26,16.00
2012,06,27,10,27,16.10
2012,06,27,10,28,16.20
2012,06,27,10,29,16.20
2012,06,27,10,30,16.20
2012,06,27,10,31,16.20
2012,06,27,10,32,16.20
2012,06,27,10,33,16.20
2012,06,27,10,34,16.30
2012,06,27,10,35,16.30
2012,06,27,10,36,16.40
2012,06,27,10,37,16.50
2012,06,27,10,38,16.60
2012,06,27,10,39,16.60
2012,06,27,10,40,16.60
2012,06,27,10,41,16.60
2012,06,27,10,42,16.60
2012,06,27,10,43,16.60
2012,06,27,10,44,16.70
2012,06,27,10,45,16.70
2012,06,27,10,46,16.80
2012,06,27,10,47,16.80
2012,06,27,10,48,16.80
2012,06,27,10,49,16.80
2012,06,27,10,50,16.80
2012,06,27,10,51,16.80
2012,06,27,10,52,16.80
2012,06,27,10,53,16.80
2012,06,27,10,54,16.80
2012,06,27,10,55,16.90
2012,06,27,10,56,17.00
2012,06,27,10,57,17.00
2012,06,27,10,58,17.00
2012,06,27,10,59,17.00
2012,06,27,11,00,17.00
2012,06,27,11,01,17.10
2012,06,27,11,02,17.00
2012,06,27,11,03,17.00
2012,06,27,11,04,16.90
2012,06,27,11,05,16.90
2012,06,27,11,06,16.90
2012,06,27,11,07,16.90
2012,06,27,11,08,16.90
2012,06,27,11,09,16.90
2012,06,27,11,10,17.00
2012,06,27,11,11,17.00
2012,06,27,11,12,17.10
2012,06,27,11,13,17.20
2012,06,27,11,14,17.20
2012,06,27,11,15,17.10
2012,06,27,11,16,17.20
2012,06,27,11,17,17.20
2012,06,27,11,18,17.30
2012,06,27,11,19,17.30
2012,06,27,11,20,17.30
2012,06,27,11,21,17.40
2012,06,27,11,22,17.40
2012,06,27,11,23,17.40
2012,06,27,11,24,17.40
2012,06,27,11,25,17.50
2012,06,27,11,26,17.60
2012,06,27,11,27,17.60
2012,06,27,11,28,17.70
2012,06,27,11,29,17.70
2012,06,27,11,30,17.60
2012,06,27,11,31,17.60
2012,06,27,11,32,17.50
2012,06,27,11,33,17.50
2012,06,27,11,34,17.50
2012,06,27,11,35,17.60
2012,06,27,11,36,17.60
2012,06,27,11,37,17.60
2012,06,27,11,38,17.70
2012,06,27,11,39,17.70
2012,06,27,11,40,17.80
2012,06,27,11,41,17.80
2012,06,27,11,42,17.80
2012,06,27,11,43,17.80
2012,06,27,11,44,17.80
2012,06,27,11,45,17.80
2012,06,27,11,46,17.80
2012,06,27,11,47,17.80
2012,06,27,11,48,17.90
2012,06,27,11,49,17.90
2012,06,27,11,50,17.90
2012,06,27,11,51,17.90
2012,06,27,11,52,18.00
2012,06,27,11,53,18.00
2012,06,27,11,54,18.00
2012,06,27,11,55,18.00
2012,06,27,11,56,17.90
2012,06,27,11,57,17.90
2012,06,27,11,58,17.90
2012,06,27,11,59,18.00
2012,06,27,12,00,18.00
2012,06,27,12,01,18.00
2012,06,27,12,02,18.00
2012,06,27,12,03,18.00
2012,06,27,12,04,17.90
2012,06,27,12,05,17.90
2012,06,27,12,06,17.90
2012,06,27,12,07,18.00
2012,06,27,12,08,18.10
2012,06,27,12,09,18.10
2012,06,27,12,10,18.10
2012,06,27,12,11,18.10
2012,06,27,12,12,18.10
2012,06,27,12,13,18.10
2012,06,27,12,14,18.10
2012,06,27,12,15,18.20
2012,06,27,12,16,18.20
2012,06,27,12,17,18.20
2012,06,27,12,18,18.30
2012,06,27,12,19,18.30
2012,06,27,12,20,18.30
2012,06,27,12,21,18.40
2012,06,27,12,22,18.50
2012,06,27,12,23,18.50
2012,06,27,12,24,18.60
2012,06,27,12,25,18.70
2012,06,27,12,26,18.80
2012,06,27,12,27,18.80
2012,06,27,12,28,18.90
2012,06,27,12,29,18.90
2012,06,27,12,30,18.90
2012,06,27,12,31,18.90
2012,06,27,12,32,18.90
2012,06,27,12,33,18.80
2012,06,27,12,34,18.90
2012,06,27,12,35,18.90
2012,06,27,12,36,19.00
2012,06,27,12,37,19.00
2012,06,27,12,38,19.20
2012,06,27,12,39,19.20
2012,06,27,12,40,19.30
2012,06,27,12,41,19.30
2012,06,27,12,42,19.20
2012,06,27,12,43,19.20
2012,06,27,12,44,19.30
2012,06,27,12,45,19.20
2012,06,27,12,46,19.10
2012,06,27,12,47,19.10
2012,06,27,12,48,19.00
2012,06,27,12,49,19.00
2012,06,27,12,50,19.00
2012,06,27,12,51,19.00
2012,06,27,12,52,19.00
2012,06,27,12,53,19.00
2012,06,27,12,54,19.10
2012,06,27,12,55,19.20
2012,06,27,12,56,19.40
2012,06,27,12,57,19.50
2012,06,27,12,58,19.50
2012,06,27,12,59,19.40
2012,06,27,13,00,19.30
2012,06,27,13,01,19.30
2012,06,27,13,02,19.30
2012,06,27,13,03,19.30
2012,06,27,13,04,19.30
2012,06,27,13,05,19.30
2012,06,27,13,06,19.30
2012,06,27,13,07,19.40
2012,06,27,13,08,19.30
2012,06,27,13,09,19.30
2012,06,27,13,10,19.30
2012,06,27,13,11,19.40
2012,06,27,13,12,19.40
2012,06,27,13,13,19.40
2012,06,27,13,14,19.40
2012,06,27,13,15,19.40
2012,06,27,13,16,19.40
2012,06,27,13,17,19.40
2012,06,27,13,18,19.40
2012,06,27,13,19,19.50
2012,06,27,13,20,19.50
2012,06,27,13,21,19.50
2012,06,27,13,22,19.60
2012,06,27,13,23,19.60
2012,06,27,13,24,19.70
2012,06,27,13,25,19.80
2012,06,27,13,26,19.80
2012,06,27,13,27,19.80
2012,06,27,13,28,19.90
2012,06,27,13,29,19.90
2012,06,27,13,30,19.80
2012,06,27,13,31,19.70
2012,06,27,13,32,19.60
2012,06,27,13,33,19.60
2012,06,27,13,34,19.60
2012,06,27,13,35,19.60
2012,06,27,13,36,19.60
2012,06,27,13,37,19.70
2012,06,27,13,38,19.70
2012,06,27,13,39,19.70
2012,06,27,13,40,19.80
2012,06,27,13,41,19.90
2012,06,27,13,42,20.10
2012,06,27,13,43,20.20
2012,06,27,13,44,20.40
2012,06,27,13,45,20.50
2012,06,27,13,46,20.50
2012,06,27,13,47,20.50
2012,06,27,13,48,20.50
2012,06,27,13,49,20.50
2012,06,27,13,50,20.50
2012,06,27,13,51,20.60
2012,06,27,13,52,20.50
2012,06,27,13,53,20.50
2012,06,27,13,54,20.40
2012,06,27,13,55,20.40
2012,06,27,13,56,20.40
2012,06,27,13,57,20.40
2012,06,27,13,58,20.40
2012,06,27,13,59,20.40
2012,06,27,14,00,20.50
2012,06,27,14,01,20.40
2012,06,27,14,02,20.30
2012,06,27,14,03,20.30
2012,06,27,14,04,20.40
2012,06,27,14,05,20.40
2012,06,27,14,06,20.50
2012,06,27,14,07,20.60
2012,06,27,14,08,20.50
2012,06,27,14,09,20.50
2012,06,27,14,10,20.40
2012,06,27,14,11,20.40
2012,06,27,14,12,20.40
2012,06,27,14,13,20.40
2012,06,27,14,14,20.50
2012,06,27,14,15,20.50
2012,06,27,14,16,20.50
2012,06,27,14,17,20.40
2012,06,27,14,18,20.40
2012,06,27,14,19,20.30
2012,06,27,14,20,20.30
2012,06,27,14,21,20.20
2012,06,27,14,22,20.30
2012,06,27,14,23,20.20
2012,06,27,14,24,20.10
2012,06,27,14,25,20.00
2012,06,27,14,26,19.90
2012,06,27,14,27,19.80
2012,06,27,14,28,19.70
2012,06,27,14,29,19.70
2012,06,27,14,30,19.60
2012,06,27,14,31,19.70
2012,06,27,14,32,19.70
2012,06,27,14,33,19.80
2012,06,27,14,34,19.80
2012,06,27,14,35,19.80
2012,06,27,14,36,19.80
2012,06,27,14,37,19.90
2012,06,27,14,38,20.00
2012,06,27,14,39,20.10
2012,06,27,14,40,20.20
2012,06,27,14,41,20.20
2012,06,27,14,42,20.20
2012,06,27,14,43,20.30
2012,06,27,14,44,20.30
2012,06,27,14,45,20.30
2012,06,27,14,46,20.30
2012,06,27,14,47,20.30
2012,06,27,14,48,20.30
2012,06,27,14,49,20.40
2012,06,27,14,50,20.50
2012,06,27,14,51,20.60
2012,06,27,14,52,20.60
2012,06,27,14,53,20.70
2012,06,27,14,54,20.70
2012,06,27,14,55,20.70
2012,06,27,14,56,20.70
2012,06,27,14,57,20.50
2012,06,27,14,58,20.30
2012,06,27,14,59,20.10
2012,06,27,15,00,20.10
2012,06,27,15,01,20.00
2012,06,27,15,02,20.00
2012,06,27,15,03,19.90
2012,06,27,15,04,19.90
2012,06,27,15,05,19.90
2012,06,27,15,06,19.90
2012,06,27,15,07,19.80
2012,06,27,15,08,19.80
2012,06,27,15,09,19.80
2012,06,27,15,10,19.80
2012,06,27,15,11,19.90
2012,06,27,15,12,20.00
2012,06,27,15,13,20.00
2012,06,27,15,14,20.00
2012,06,27,15,15,20.00
2012,06,27,15,16,20.00
2012,06,27,15,17,20.00
2012,06,27,15,18,20.00
2012,06,27,15,19,19.90
2012,06,27,15,20,19.90
2012,06,27,15,21,19.80
2012,06,27,15,22,19.80
2012,06,27,15,23,19.80
2012,06,27,15,24,19.80
2012,06,27,15,25,19.80
2012,06,27,15,26,19.90
2012,06,27,15,27,19.90
2012,06,27,15,28,19.90
2012,06,27,15,29,19.90
2012,06,27,15,30,19.90
2012,06,27,15,31,19.80
2012,06,27,15,32,19.80
2012,06,27,15,33,19.70
2012,06,27,15,34,19.60
2012,06,27,15,35,19.60
2012,06,27,15,36,19.60
2012,06,27,15,37,19.60
2012,06,27,15,38,19.60
2012,06,27,15,39,19.60
2012,06,27,15,40,19.60
2012,06,27,15,41,19.60
2012,06,27,15,42,19.60
2012,06,27,15,43,19.50
2012,06,27,15,44,19.50
2012,06,27,15,45,19.40
2012,06,27,15,46,19.40
2012,06,27,15,47,19.40
2012,06,27,15,48,19.50
2012,06,27,15,49,19.40
2012,06,27,15,50,19.40
2012,06,27,15,51,19.40
2012,06,27,15,52,19.30
2012,06,27,15,53,19.30
2012,06,27,15,54,19.20
2012,06,27,15,55,19.20
2012,06,27,15,56,19.20
2012,06,27,15,57,19.20
2012,06,27,15,58,19.20
2012,06,27,15,59,19.20
2012,06,27,16,00,19.20
2012,06,27,16,01,19.20
2012,06,27,16,02,19.20
2012,06,27,16,03,19.30
2012,06,27,16,04,19.30
2012,06,27,16,05,19.30
2012,06,27,16,06,19.30
2012,06,27,16,07,19.30
2012,06,27,16,08,19.20
2012,06,27,16,09,19.20
2012,06,27,16,10,19.20
2012,06,27,16,11,19.20
2012,06,27,16,12,19.20
2012,06,27,16,13,19.20
2012,06,27,16,14,19.30
2012,06,27,16,15,19.30
2012,06,27,16,16,19.30
2012,06,27,16,17,19.40
2012,06,27,16,18,19.40
2012,06,27,16,19,19.50
2012,06,27,16,20,19.50
2012,06,27,16,21,19.60
2012,06,27,16,22,19.60
2012,06,27,16,23,19.60
2012,06,27,16,24,19.60
2012,06,27,16,25,19.60
2012,06,27,16,26,19.60
2012,06,27,16,27,19.60
2012,06,27,16,28,19.50
2012,06,27,16,29,19.50
2012,06,27,16,30,19.40
2012,06,27,16,31,19.40
2012,06,27,16,32,19.30
2012,06,27,16,33,19.30
2012,06,27,16,34,19.30
2012,06,27,16,35,19.30
2012,06,27,16,36,19.30
2012,06,27,16,37,19.30
2012,06,27,16,38,19.30
2012,06,27,16,39,19.20
2012,06,27,16,40,19.20
2012,06,27,16,41,19.20
2012,06,27,16,42,19.20
2012,06,27,16,43,19.10
2012,06,27,16,44,19.10
2012,06,27,16,45,19.00
2012,06,27,16,46,19.00
2012,06,27,16,47,18.90
2012,06,27,16,48,18.90
2012,06,27,16,49,18.80
2012,06,27,16,50,18.80
2012,06,27,16,51,18.80
2012,06,27,16,52,18.80
2012,06,27,16,53,18.80
2012,06,27,16,54,18.80
2012,06,27,16,55,18.80
2012,06,27,16,56,18.70
2012,06,27,16,57,18.70
2012,06,27,16,58,18.60
2012,06,27,16,59,18.60
2012,06,27,17,00,18.60
2012,06,27,17,01,18.70
2012,06,27,17,02,18.70
2012,06,27,17,03,18.70
2012,06,27,17,04,18.70
2012,06,27,17,05,18.70
2012,06,27,17,06,18.80
2012,06,27,17,07,18.80
2012,06,27,17,08,18.80
2012,06,27,17,09,18.70
2012,06,27,17,10,18.80
2012,06,27,17,11,18.80
2012,06,27,17,12,18.80
2012,06,27,17,13,18.80
2012,06,27,17,14,18.80
2012,06,27,17,15,18.90
2012,06,27,17,16,18.90
2012,06,27,17,17,19.00
2012,06,27,17,18,19.00
2012,06,27,17,19,19.10
2012,06,27,17,20,19.10
2012,06,27,17,21,19.10
2012,06,27,17,22,19.10
2012,06,27,17,23,19.10
2012,06,27,17,24,19.10
2012,06,27,17,25,19.10
2012,06,27,17,26,19.10
2012,06,27,17,27,19.20
2012,06,27,17,28,19.20
2012,06,27,17,29,19.20
2012,06,27,17,30,19.20
2012,06,27,17,31,19.20